GFSNW_500_rhum_081.txt.gz
RH
19 4 85 98 98 99 96 91 76 58 34 21 8 5 4 4 4 4 8 13 45 57 62 74 98 91 93 88 56 36 38 56 62 89 90 81 83 98 99 100 100 89 74 65
46 36 97 98 98 98 96 84 68 51 32 21 10 5 4 4 3 4 6 9 14 49 46 70 80 81 83 87 88 92 85 75 72 78 84 87 90 89 93 92 95 85 74 64
48 98 98 98 97 98 96 78 65 44 32 21 10 5 4 4 3 3 4 7 9 16 29 41 54 68 68 58 64 68 79 88 91 95 94 93 95 99 97 89 85 98 86 88
98 98 99 98 98 98 96 71 61 43 33 22 11 5 4 4 4 3 3 3 7 11 17 21 34 42 36 34 41 57 82 92 92 99 100 100 100 100 91 81 96 84 88 77
97 99 98 98 97 96 96 72 67 45 35 22 11 5 7 4 4 4 4 3 4 10 14 16 22 32 41 52 57 68 77 99 100 96 89 78 92 99 96 90 89 85 98 89
97 99 98 97 98 97 96 88 76 55 38 24 12 6 8 4 4 4 4 4 4 5 12 15 17 23 35 52 65 78 93 98 100 100 99 93 86 87 80 83 79 75 71 90
99 98 98 97 96 98 94 93 82 66 42 26 14 6 6 7 4 4 5 4 4 4 5 13 21 19 24 30 52 69 77 71 72 83 82 80 87 78 75 71 65 60 57 56
98 98 97 97 97 96 94 93 82 67 44 28 15 8 5 8 4 4 5 6 4 4 4 6 13 18 26 33 34 48 59 72 79 69 64 58 62 68 66 69 66 59 56 57
99 97 97 97 97 96 90 92 91 60 48 32 19 11 5 6 6 5 5 6 6 5 4 4 7 13 19 33 36 39 48 55 50 47 45 42 47 66 88 76 60 59 54 49
99 97 97 98 97 96 97 95 90 65 55 36 25 14 9 6 7 7 5 7 7 6 6 5 5 7 14 24 29 39 48 46 47 51 45 42 43 41 41 49 53 63 71 73
98 99 97 97 98 97 98 96 94 92 61 42 33 20 13 9 6 9 8 7 8 8 8 7 6 5 7 11 18 26 30 39 51 46 43 47 51 46 50 43 41 40 37 36
96 98 98 97 97 98 98 97 98 83 62 46 41 27 20 11 9 8 9 8 7 9 9 9 8 7 6 6 8 19 24 31 40 57 65 66 50 55 56 49 46 44 40 38
97 97 97 96 98 97 97 100 97 92 84 45 47 36 29 18 11 8 12 10 9 9 10 10 10 8 7 7 7 7 9 18 27 30 48 60 60 53 60 64 62 63 62 55
98 96 97 98 97 97 97 97 90 79 57 45 46 41 36 29 15 10 9 11 10 11 10 11 11 10 9 8 8 8 8 8 9 21 33 42 50 70 68 69 78 79 85 89
97 98 97 96 97 97 96 97 93 84 59 51 46 48 39 33 28 13 10 12 13 13 13 12 12 12 11 11 10 9 10 9 8 10 16 26 35 47 67 85 87 81 81 85
98 96 96 97 96 96 96 96 86 72 61 54 49 45 40 40 34 22 14 14 15 16 16 16 15 14 14 14 13 13 12 11 10 10 9 12 51 74 79 80 88 92 97 91
97 98 97 97 96 96 96 87 78 72 63 57 54 53 53 48 37 31 24 19 20 19 20 19 19 19 18 18 17 17 16 15 13 13 12 9 8 10 16 43 57 68 76 88
98 99 97 98 98 94 95 96 86 75 70 61 60 59 48 46 40 37 36 33 28 27 26 25 24 24 23 23 22 21 21 20 18 18 18 15 14 11 10 13 32 62 76 92
99 98 97 98 97 94 94 96 94 91 70 64 61 59 55 49 50 51 49 43 39 39 36 32 31 30 29 28 28 26 26 26 24 23 21 20 20 20 17 16 15 29 59 84
93 97 97 98 97 95 95 96 94 95 95 84 65 65 65 54 56 54 53 50 48 48 47 45 40 37 36 36 35 34 33 33 31 29 27 22 22 25 24 21 14 12 22 60
96 94 94 99 98 96 96 96 95 86 68 64 63 59 59 59 58 59 60 64 63 57 57 57 54 46 43 43 42 42 42 42 40 38 34 32 28 29 29 26 15 10 10 19
99 100 98 95 97 97 95 94 94 96 96 89 74 64 62 62 64 63 67 72 71 71 69 73 66 54 51 50 48 47 48 48 46 43 40 37 36 35 34 29 23 9 9 10
98 97 92 87 93 95 91 97 98 98 96 92 84 78 74 67 64 71 74 79 78 75 83 86 76 66 61 59 55 52 52 52 49 48 44 42 41 38 36 34 30 14 10 10
94 98 96 95 90 92 97 99 96 98 96 91 84 72 68 68 66 75 80 79 69 76 90 88 77 74 69 62 58 56 57 55 51 50 49 46 46 43 39 37 34 24 13 12
99 100 97 90 89 96 97 98 96 97 96 97 92 78 72 67 61 74 83 81 78 78 74 78 82 76 69 64 61 60 60 58 52 50 48 49 49 47 44 39 35 31 21 15
100 93 95 94 94 96 97 97 97 97 97 94 80 67 58 56 54 64 80 88 88 75 80 85 83 78 75 67 62 62 61 58 52 50 50 50 50 50 48 39 37 35 27 16
91 99 97 99 99 98 98 98 97 98 98 97 95 91 76 57 48 62 85 88 86 86 88 84 78 76 70 67 63 61 60 56 51 50 47 47 52 54 49 41 41 39 28 19

GFSNW_500_rhum_084.txt.gz
RH
16 52 71 17 4 4 27 78 97 93 67 34 13 5 4 4 4 4 6 16 44 55 61 67 50 34 39 57 60 77 68 71 69 67 61 69 78 81 85 86 86 80 83 78
78 100 100 72 4 11 56 93 98 83 58 31 10 4 4 3 3 3 4 8 25 46 59 71 72 61 34 29 33 56 60 64 61 51 72 81 72 79 83 83 83 83 78 79
100 98 100 84 14 40 90 97 97 74 47 25 8 4 4 4 3 3 4 6 8 22 43 78 77 74 74 75 76 64 56 67 78 83 86 87 87 77 65 76 85 93 93 97
100 100 96 21 32 92 100 98 94 71 40 23 7 4 5 4 3 3 4 5 6 11 20 38 55 71 70 65 62 54 60 75 81 87 88 85 90 90 84 82 93 80 100 97
100 93 14 71 96 98 98 98 77 55 35 21 7 4 4 4 4 3 3 4 5 7 10 16 27 38 47 50 53 51 63 73 92 92 89 90 94 95 96 96 90 80 99 90
100 80 91 95 98 98 98 98 71 48 34 22 7 6 4 5 5 4 4 4 4 6 8 11 14 21 27 36 48 62 79 88 90 88 87 82 87 84 77 77 89 95 89 100
96 88 98 98 98 98 98 88 62 50 35 22 8 7 4 5 6 5 4 4 4 4 4 7 11 15 17 23 31 48 57 70 73 81 80 75 82 90 86 82 71 74 74 78
97 98 98 99 98 97 97 83 77 51 36 23 8 6 7 4 6 7 6 6 5 5 4 5 7 12 16 19 25 30 35 41 47 48 53 66 75 74 78 79 76 73 65 63
98 98 99 97 98 97 98 90 88 52 38 24 10 5 8 5 5 8 8 7 7 6 6 6 6 8 8 12 18 25 29 32 31 36 39 43 47 49 59 68 68 77 75 74
99 98 98 98 97 97 97 96 94 53 39 24 14 5 6 7 6 8 10 8 9 8 7 7 7 7 8 8 9 11 15 23 28 31 32 37 38 36 37 38 44 54 68 73
100 95 98 98 97 99 96 96 94 56 42 27 17 9 6 6 8 9 8 10 10 10 9 9 9 8 8 7 7 8 10 12 16 19 27 36 33 37 45 48 44 43 44 42
98 98 96 97 98 97 96 96 92 60 47 31 22 13 9 7 7 11 10 10 10 11 11 11 11 10 10 10 9 9 9 9 11 15 17 21 28 44 46 44 38 39 40 42
99 98 98 96 98 96 95 97 84 68 73 40 29 19 14 10 7 8 11 12 11 11 12 12 13 12 12 11 12 11 10 10 8 10 9 12 14 18 18 32 51 55 54 55
99 98 97 98 98 97 97 97 96 98 85 39 38 26 20 16 10 8 8 12 14 13 14 14 14 15 14 15 14 14 14 13 12 10 9 9 8 10 15 22 33 50 60 66
100 96 97 98 98 97 98 96 95 94 71 73 48 34 26 23 16 10 10 12 14 15 17 16 17 17 17 18 18 18 18 17 16 15 14 11 10 9 9 12 33 43 54 65
99 98 97 97 97 100 98 98 100 98 96 58 46 35 34 29 27 22 14 14 15 17 19 20 20 19 20 20 21 22 21 21 21 20 18 16 14 13 11 10 9 10 12 21
95 97 99 98 98 100 98 95 88 94 73 64 45 41 39 36 37 32 26 23 20 24 26 24 25 24 24 23 23 25 26 26 25 24 22 20 18 18 17 16 16 16 12 10
98 99 99 99 100 97 94 94 99 96 79 53 46 47 44 50 41 37 37 34 36 36 34 35 32 32 31 28 28 28 30 31 32 30 28 26 24 21 20 21 22 22 18 10
97 98 98 96 98 98 96 96 92 85 61 54 54 54 51 42 42 42 42 47 46 43 44 45 46 43 40 38 36 36 35 36 38 38 36 33 30 28 26 24 27 31 27 14
97 93 95 98 99 96 96 86 75 68 61 57 56 54 53 45 44 45 48 50 49 47 51 49 52 56 55 48 44 44 43 44 44 46 45 42 38 36 35 34 33 33 32 26
94 93 93 100 99 96 95 94 88 78 71 59 65 66 58 53 48 50 54 55 55 57 58 55 62 65 62 57 57 54 51 51 50 52 52 49 45 42 40 39 36 37 37 33
100 97 99 97 97 97 95 89 92 87 89 86 84 67 57 57 52 52 58 64 60 64 60 58 66 67 66 64 63 60 57 57 57 58 57 55 52 50 48 46 45 44 42 39
99 96 96 96 94 96 97 94 89 76 71 70 68 65 60 61 60 64 64 64 65 60 66 63 64 68 68 65 64 63 63 61 60 60 60 58 53 51 51 48 48 48 46 42
94 96 96 96 92 90 97 98 98 96 86 78 79 78 77 75 66 55 55 58 54 59 64 60 64 67 62 63 63 66 65 62 60 58 59 58 54 51 48 48 48 52 49 44
94 98 92 89 97 96 97 97 97 97 92 95 87 84 75 74 68 60 58 58 51 62 56 61 64 62 62 56 60 65 65 63 59 57 57 56 53 51 51 51 53 56 51 49
99 87 82 80 92 97 98 98 97 90 92 88 92 88 77 61 54 57 58 59 60 60 58 56 58 59 53 54 60 63 63 59 56 56 56 55 53 51 51 53 56 60 56 52
82 90 90 93 97 97 98 98 94 94 94 92 94 77 70 72 67 64 65 63 58 58 61 57 52 52 52 54 54 55 53 50 51 53 53 54 51 49 51 56 59 62 61 53

GFSNW_500_rhum_087.txt.gz
RH
100 100 80 13 11 70 29 9 8 20 80 91 79 36 13 4 4 5 8 21 48 64 53 20 32 46 53 99 94 92 90 89 85 80 77 83 88 89 97 96 100 85 88 76
99 99 49 15 90 76 40 25 23 48 93 95 59 20 6 4 4 4 6 12 43 53 55 36 20 45 76 59 54 64 71 67 55 45 41 59 76 74 81 81 85 77 74 68
100 82 50 100 70 30 37 27 34 70 98 86 37 14 4 4 3 4 5 9 27 41 49 60 29 38 44 26 23 22 26 33 28 32 30 35 57 59 66 65 67 70 75 88
96 58 100 100 83 20 11 13 30 95 98 69 26 8 4 4 3 4 4 6 8 20 33 51 66 60 58 55 53 64 60 51 47 64 66 55 56 60 65 71 76 78 99 94
70 100 100 100 100 73 95 56 91 98 90 45 17 5 4 4 4 4 4 4 6 8 16 41 44 56 67 64 62 60 53 42 39 52 71 76 70 66 68 73 75 75 76 72
100 100 99 100 96 100 67 74 96 98 68 32 10 4 4 4 4 4 4 4 4 5 7 10 17 32 36 42 47 47 46 44 40 48 72 78 71 68 65 65 67 64 63 73
100 100 100 93 100 60 76 97 98 86 47 21 7 4 4 4 4 4 4 4 5 5 4 7 9 12 18 24 29 32 37 42 50 55 66 59 76 74 66 64 59 55 66 74
100 100 98 96 88 70 95 99 97 58 29 15 6 4 5 5 5 6 6 5 5 5 5 5 6 8 10 12 18 23 28 35 38 44 64 58 55 54 59 63 67 68 66 64
98 78 72 98 85 94 97 97 89 41 27 14 6 4 5 6 6 7 7 6 7 6 6 6 6 6 6 7 7 12 14 21 27 35 38 41 43 43 46 44 39 54 65 71
100 100 99 90 96 97 95 97 66 40 27 13 6 4 4 7 8 9 9 9 8 8 8 8 7 7 7 7 7 6 7 9 13 15 19 23 27 34 41 31 31 35 39 49
97 94 95 96 98 96 98 94 61 40 25 14 6 6 5 6 8 10 10 11 11 10 10 11 10 9 9 9 8 8 8 7 7 9 12 24 19 25 28 28 35 37 37 38
99 100 99 94 97 98 96 94 56 41 27 16 7 6 7 8 8 9 10 11 12 13 14 13 14 13 13 12 12 11 11 10 9 8 8 7 8 9 13 18 24 30 33 34
98 99 99 98 97 96 97 86 49 42 29 20 10 5 6 6 7 9 11 11 12 14 14 15 16 17 16 16 17 16 16 15 15 12 11 10 9 8 8 8 9 11 13 24
97 99 96 96 94 94 96 94 59 45 37 22 16 9 7 7 6 8 12 14 14 14 16 16 17 18 20 22 22 22 22 22 21 19 18 15 14 13 12 10 9 8 8 8
99 98 97 97 94 91 98 93 62 59 37 30 22 15 11 9 8 8 8 10 12 15 17 19 19 20 20 22 24 26 28 28 27 27 27 24 22 19 18 15 13 13 12 10
99 97 98 98 99 98 98 90 78 60 56 40 33 24 17 14 12 11 11 12 13 14 18 21 24 23 25 24 24 25 27 29 32 33 34 33 30 28 24 21 20 19 19 19
89 100 99 98 96 98 98 97 75 73 80 48 37 35 26 23 22 18 17 17 18 20 24 30 31 31 31 30 30 30 30 31 33 35 38 40 40 36 33 29 26 24 23 25
87 97 100 97 96 100 98 97 96 96 88 62 74 59 32 32 33 32 30 28 30 31 35 37 39 39 39 38 38 37 36 38 39 40 42 44 46 45 42 38 34 31 31 32
85 96 97 89 92 95 96 98 97 98 92 93 72 38 37 39 39 42 38 40 38 39 39 40 41 43 45 47 48 47 44 46 46 46 47 49 51 52 50 47 42 39 39 41
86 90 93 89 80 90 95 96 95 89 75 72 92 47 45 44 43 42 40 41 41 41 43 43 44 44 46 48 51 52 53 54 53 53 53 54 54 56 55 54 51 48 47 46
94 98 95 91 91 94 94 91 91 89 90 84 56 49 50 48 39 39 41 40 40 42 48 46 45 48 43 48 46 50 52 56 57 57 57 57 56 56 57 56 53 49 48 46
100 100 100 99 95 87 84 87 94 94 89 65 52 53 55 52 48 49 46 43 44 51 54 48 48 43 45 48 45 47 50 54 55 59 58 56 58 57 55 55 53 50 48 47
100 98 96 98 92 83 82 85 87 71 65 69 56 57 73 71 61 50 47 50 56 55 48 47 43 38 49 48 49 48 51 54 56 56 58 58 56 55 55 54 52 50 48 48
96 91 95 93 83 68 76 100 97 89 86 88 84 89 77 61 53 50 57 60 53 42 47 43 36 42 48 48 51 51 50 50 50 52 53 50 48 49 50 52 51 50 49 50
98 97 84 71 74 84 88 98 98 98 97 94 80 65 63 65 65 69 64 55 51 50 46 44 48 50 46 47 49 47 45 44 44 43 43 39 40 44 47 46 48 48 50 52
98 93 78 73 83 95 84 89 97 97 90 73 77 84 88 84 75 70 64 53 48 48 42 49 50 51 43 47 46 42 36 35 34 35 32 30 32 36 40 41 43 48 51 54
86 84 85 91 87 90 97 100 98 95 92 88 86 81 80 75 73 68 58 57 52 51 51 48 48 41 40 40 40 34 30 29 28 27 24 25 28 32 34 40 46 49 54 58

GFSNW_500_rhum_090.txt.gz
RH
94 100 100 100 100 59 13 9 14 24 6 34 76 98 100 34 15 12 18 17 50 58 26 26 39 60 81 79 93 100 80 60 71 70 79 86 82 71 72 64 68 85 91 81
100 99 100 100 99 22 9 9 33 18 60 64 93 100 54 20 9 10 12 14 52 70 25 30 28 41 80 71 85 91 85 86 83 64 58 55 50 48 63 74 86 86 77 84
92 78 100 79 55 9 8 41 21 25 35 67 100 88 27 8 6 9 9 12 42 57 35 23 29 31 75 64 60 67 53 35 32 36 31 31 42 49 54 51 66 73 71 72
99 100 100 39 9 10 22 13 26 44 40 99 98 50 15 7 6 8 8 11 26 46 64 38 26 32 58 42 29 25 48 48 41 45 46 44 28 36 55 58 59 60 67 55
86 98 100 9 18 43 32 16 41 85 100 99 65 22 8 6 6 7 5 7 14 28 55 72 38 40 45 33 40 53 57 46 37 32 40 50 51 47 48 45 47 46 34 37
52 94 42 44 62 31 46 90 99 97 98 87 46 14 6 5 5 4 4 4 6 11 16 39 64 65 62 61 56 55 52 51 43 36 34 46 52 52 49 49 47 46 50 62
97 42 88 66 69 80 90 100 96 88 97 78 26 6 5 5 5 4 4 4 4 5 6 10 15 23 36 50 57 53 53 48 46 43 35 34 62 54 56 51 47 47 47 45
60 90 85 65 61 58 98 100 98 99 92 35 11 6 5 5 5 5 4 4 4 4 4 5 5 6 8 9 12 19 22 25 27 32 36 33 45 42 47 52 55 55 54 54
79 82 39 56 68 99 94 75 93 100 74 22 8 6 6 5 6 6 6 6 6 5 5 5 5 5 5 5 5 6 6 11 13 24 27 32 30 34 33 33 34 38 38 48
85 74 68 90 69 64 69 88 95 85 37 14 6 6 6 6 7 7 7 8 8 7 7 7 7 6 6 6 6 5 5 6 6 6 8 12 19 30 27 30 26 27 31 29
100 100 97 92 92 91 93 99 94 58 30 11 5 5 6 7 8 9 9 10 10 10 10 10 10 10 9 9 9 8 8 7 7 6 6 9 7 10 15 15 15 22 25 30
80 98 96 97 96 94 96 99 85 42 22 8 5 5 7 8 10 11 12 13 14 14 15 15 14 14 14 15 14 14 13 13 13 13 12 11 11 10 8 8 7 8 9 11
84 81 92 91 94 89 93 88 58 38 17 8 5 5 5 7 8 10 13 14 15 16 16 17 18 19 21 20 22 21 21 22 22 19 19 20 17 16 14 12 11 10 8 8
83 91 97 98 98 90 88 89 52 38 18 9 6 5 5 6 9 11 12 15 16 17 19 19 19 20 22 22 25 26 28 28 30 30 31 30 29 29 26 23 20 18 16 15
84 85 93 98 98 98 94 97 63 38 21 12 7 5 6 7 8 12 15 17 15 17 19 20 22 24 24 24 25 25 27 29 30 32 34 36 37 38 37 36 35 30 28 27
79 89 86 95 97 98 98 96 72 43 26 19 12 7 6 6 6 7 9 11 12 14 18 22 26 29 30 30 31 31 31 32 33 34 36 38 40 42 42 43 41 40 38 36
70 79 96 97 98 99 96 93 80 46 37 41 18 14 8 8 8 9 11 14 13 16 20 25 30 35 36 36 37 36 39 39 39 40 42 41 44 45 45 46 47 48 46 45
69 75 77 87 96 97 97 95 94 66 63 40 26 22 17 14 15 14 15 17 18 21 28 32 34 36 36 37 38 40 41 43 42 45 46 46 47 48 46 46 48 48 49 48
71 73 83 85 86 91 91 99 97 92 93 65 38 32 29 26 23 26 30 33 31 33 33 34 34 36 39 38 39 39 38 38 39 42 44 45 47 49 47 47 47 48 50 52
72 77 74 73 79 93 83 82 100 96 84 69 53 51 44 65 40 33 37 41 38 37 36 35 38 40 39 37 38 37 35 38 37 37 40 42 41 45 46 46 45 46 48 51
72 84 89 89 83 89 88 89 92 91 90 87 93 80 84 74 40 38 40 38 38 36 37 36 45 46 37 34 38 38 40 40 38 36 35 37 40 43 46 45 44 44 46 48
91 90 92 92 77 78 78 79 79 76 92 95 86 79 77 61 45 46 42 38 39 38 39 43 50 46 33 35 36 38 40 42 40 38 35 34 36 40 41 38 37 35 36 39
90 88 90 87 76 64 63 73 70 74 84 85 76 74 81 58 50 49 42 42 45 42 42 52 49 36 35 37 36 38 38 40 39 36 31 29 32 33 32 28 30 30 31 33
92 84 80 82 59 54 63 80 89 85 87 99 96 92 66 50 52 50 53 56 49 43 53 51 41 40 38 42 42 36 34 33 34 33 29 28 28 26 24 24 27 28 29 32
89 82 77 63 59 76 91 90 84 83 96 100 99 79 55 54 53 64 66 55 46 56 57 50 45 40 50 49 45 36 34 35 34 32 28 26 25 24 23 22 24 26 29 32
92 78 67 65 78 96 100 93 91 91 100 100 90 86 76 68 68 66 53 54 63 61 54 45 44 50 48 48 42 40 40 37 34 30 26 23 23 23 23 23 24 26 26 34
86 74 72 76 96 98 100 100 100 98 97 100 96 90 90 76 59 57 62 67 63 51 49 50 52 50 44 46 44 43 41 38 33 28 24 24 24 23 23 24 25 24 25 34

GFSNW_500_rhum_093.txt.gz
RH
86 82 100 88 93 98 76 11 14 13 12 32 22 93 100 100 100 73 22 42 63 31 32 43 86 95 95 93 78 85 72 65 67 97 74 79 81 77 62 89 89 72 67 80
74 100 100 91 97 48 19 13 13 11 22 25 73 100 100 100 97 29 22 40 66 28 37 46 62 79 74 89 87 75 64 75 83 70 70 67 59 51 49 62 70 82 67 65
75 93 100 100 80 17 9 10 11 16 19 54 82 100 100 95 38 18 21 41 65 28 33 35 38 71 75 74 74 66 60 47 34 32 38 46 49 47 49 52 79 93 81 70
88 100 100 100 22 11 10 13 24 41 48 81 100 100 100 38 14 14 16 30 59 40 25 28 32 61 61 61 66 38 50 55 59 54 44 32 37 47 52 49 48 49 54 62
77 94 63 21 11 11 15 22 39 79 100 100 100 100 32 13 9 10 10 20 47 61 35 24 24 37 51 59 30 39 42 38 32 30 42 50 30 24 30 33 38 38 39 42
48 50 14 9 10 12 39 77 95 94 100 100 98 38 10 8 7 6 9 15 34 45 53 37 26 29 43 48 35 44 46 46 40 34 30 35 44 46 43 46 50 51 49 32
29 15 9 10 14 26 72 94 87 100 97 100 39 13 7 6 5 5 6 8 11 12 26 46 30 30 36 35 45 48 53 48 48 45 42 33 33 32 36 41 44 49 47 41
12 10 12 17 23 36 42 90 100 100 100 65 20 8 6 5 5 5 5 5 5 6 7 11 18 23 28 30 32 35 36 33 36 39 37 35 36 28 29 31 28 28 28 31
13 20 20 25 40 69 98 98 87 95 76 40 13 6 5 5 5 5 5 4 4 4 5 5 5 5 5 5 5 5 6 8 14 13 17 20 22 24 24 22 25 25 28 24
12 22 31 50 62 86 69 83 89 90 41 21 8 6 6 6 6 6 6 6 6 6 6 7 7 7 7 6 5 5 5 5 4 5 5 6 7 8 9 15 17 16 18 20
20 31 46 46 52 87 86 91 80 73 26 8 6 6 6 7 8 8 9 9 10 10 10 10 10 11 12 12 12 12 12 12 11 10 8 9 6 6 7 6 6 6 7 8
42 44 56 65 58 62 72 90 95 58 14 7 6 6 7 7 8 10 10 12 13 15 15 16 17 18 19 19 19 18 18 18 18 19 18 18 18 16 13 11 11 11 10 9
58 59 82 92 85 94 95 93 86 41 13 6 6 6 8 9 11 11 14 15 17 18 19 20 21 22 23 23 24 25 25 26 26 24 26 25 26 26 25 24 23 22 22 20
44 62 70 76 87 89 93 93 76 34 15 7 5 6 8 9 10 12 13 15 16 19 20 22 24 24 25 25 26 26 27 28 30 30 31 33 32 34 33 34 33 33 33 32
53 51 57 67 81 88 86 83 68 36 16 8 5 5 7 8 9 11 13 15 18 18 20 22 24 28 31 30 30 32 32 32 33 33 35 37 37 38 39 36 35 36 38 38
46 61 65 76 76 80 88 80 72 46 25 10 6 5 6 6 9 11 16 17 15 12 14 19 24 30 33 34 35 35 35 37 37 37 39 40 40 40 37 38 36 33 33 34
45 60 62 71 83 78 79 72 72 54 36 20 10 6 6 6 7 8 9 9 10 12 15 21 27 32 33 33 33 32 34 34 32 33 33 35 38 38 39 36 35 35 35 35
49 54 67 66 74 76 65 60 60 59 45 32 19 12 7 6 6 6 7 10 13 18 19 25 29 30 31 33 32 31 34 33 29 28 29 31 34 34 34 32 30 33 32 33
48 52 55 55 67 77 64 55 59 60 48 50 34 35 18 12 9 9 10 14 19 22 27 31 30 31 34 37 31 30 31 32 33 32 33 33 30 29 29 29 30 29 28 26
49 52 55 52 62 69 77 64 59 61 61 53 57 68 64 22 18 18 21 25 30 34 36 34 33 31 37 42 35 31 31 30 31 32 32 32 30 28 27 26 24 25 25 24
66 68 59 58 61 65 66 79 70 66 62 63 64 71 80 28 30 30 39 38 35 36 35 34 35 36 39 43 35 32 31 32 30 27 29 28 27 25 24 22 22 22 22 22
89 100 92 71 66 66 63 66 76 70 65 60 82 88 91 33 42 49 60 50 38 37 36 38 38 40 44 39 36 32 35 37 33 27 28 27 27 24 23 22 20 20 21 21
100 99 100 91 80 62 55 55 63 78 74 82 99 97 74 67 92 90 73 55 44 43 38 42 44 44 45 40 36 36 42 40 35 32 33 31 29 25 23 21 21 22 22 21
100 99 94 90 64 49 50 70 76 94 98 100 99 95 93 95 96 83 69 58 48 42 45 52 52 51 48 42 39 43 42 41 38 39 36 36 32 27 24 23 23 23 22 22
80 88 67 67 62 56 66 73 83 90 96 98 100 100 100 86 71 73 70 53 43 45 60 55 55 54 48 45 46 45 42 42 42 43 40 40 34 30 27 25 23 22 22 23
26 92 69 64 69 68 79 89 91 88 96 97 95 98 96 90 83 79 68 46 49 70 66 59 60 57 54 50 52 47 44 45 46 45 42 37 32 29 27 25 24 24 23 25
24 30 80 72 89 93 92 92 90 91 96 97 97 96 86 92 89 81 55 50 66 72 62 64 68 64 55 57 56 50 47 48 49 48 44 34 29 28 27 28 28 25 23 24

GFSNW_500_rhum_096.txt.gz
RH
61 84 100 95 86 79 76 70 30 19 15 12 13 44 100 100 99 28 36 61 29 35 38 80 75 59 92 100 86 76 92 94 99 99 100 100 100 93 73 62 54 68 64 66
99 100 95 100 100 83 38 41 15 12 11 13 42 100 100 100 53 25 46 65 30 31 65 86 90 74 72 72 68 65 73 83 72 77 82 84 87 99 77 72 68 66 55 56
93 100 100 100 93 38 14 12 11 12 18 62 100 100 100 98 25 28 52 54 27 38 55 67 73 80 72 81 79 73 53 51 58 56 53 55 49 57 69 75 62 52 48 46
76 87 80 77 16 8 12 11 15 42 99 100 100 100 100 35 24 26 50 30 32 34 38 59 67 61 62 63 47 50 50 34 31 36 47 44 34 32 34 52 61 53 40 32
38 24 8 8 9 13 12 18 59 92 100 100 100 100 37 20 19 20 42 34 32 33 33 48 62 61 55 38 31 46 40 41 48 50 34 33 41 40 35 36 36 45 43 38
9 8 11 12 20 18 29 66 99 100 100 100 100 52 15 11 13 14 25 31 28 26 26 29 32 46 46 50 34 48 45 37 32 30 34 30 19 27 28 30 29 28 27 31
10 16 26 21 28 45 73 88 91 98 100 100 52 15 9 7 7 9 15 28 35 36 34 29 24 25 38 38 39 42 34 32 38 41 37 32 33 31 30 32 30 25 24 24
32 27 18 21 40 58 83 84 96 99 93 54 13 7 5 5 5 5 6 10 17 25 38 25 19 22 23 25 27 30 33 35 31 34 32 33 35 29 27 25 26 25 26 26
26 22 21 26 43 71 80 89 98 99 56 11 7 6 5 4 4 4 4 5 5 6 6 8 11 13 13 11 11 9 10 12 13 15 15 17 17 18 17 18 20 23 20 18
39 32 31 41 70 75 71 84 85 86 29 6 6 5 5 5 5 6 6 6 6 7 7 7 7 7 8 7 6 5 6 6 6 6 6 6 6 7 7 10 10 8 7 7
33 37 40 50 72 76 72 80 76 65 24 6 6 6 6 7 8 8 9 9 10 10 10 12 12 13 13 13 14 14 13 12 12 10 10 10 9 9 8 7 6 6 7 6
28 37 40 50 61 68 77 81 75 45 15 7 6 7 8 9 10 11 12 14 14 16 17 19 19 19 20 20 19 18 18 18 18 18 17 18 18 18 17 17 17 17 18 18
29 41 46 47 57 63 74 68 43 28 11 6 6 7 8 11 12 15 16 18 19 20 21 21 22 22 23 24 24 24 24 24 24 23 24 23 23 22 22 21 22 23 22 23
28 28 38 51 58 49 55 59 42 21 10 6 6 8 10 12 13 14 16 18 20 22 24 26 27 28 27 28 28 28 27 27 28 28 28 28 28 28 28 26 25 25 23 22
27 32 33 43 51 52 47 48 43 20 12 7 6 7 9 11 12 14 15 18 21 20 22 24 27 30 31 31 30 30 28 27 27 27 28 29 29 29 29 29 28 26 25 24
21 31 33 34 36 44 43 37 43 31 11 7 6 6 7 9 10 14 14 17 18 14 15 19 24 31 30 31 29 27 26 24 23 22 23 24 24 26 24 22 23 23 22 19
17 30 32 33 37 38 40 36 36 34 20 11 7 5 5 6 7 9 11 14 12 11 12 18 23 30 30 32 31 28 27 25 25 25 25 25 25 24 23 21 19 18 16 16
30 27 33 32 34 42 41 46 45 40 34 20 12 9 6 6 6 6 7 8 8 9 12 16 22 29 29 34 34 28 27 25 25 25 26 25 23 21 20 20 19 18 18 16
33 44 48 35 40 45 52 47 48 45 43 40 28 18 12 8 6 6 6 6 8 12 16 23 28 30 30 34 41 33 29 26 27 27 26 23 20 20 21 21 21 19 18 17
9 41 58 54 45 61 58 48 47 44 40 42 50 35 25 21 22 15 11 9 10 16 22 31 34 34 30 33 44 38 31 29 32 34 32 26 26 28 26 22 21 20 19 18
4 16 26 57 59 55 56 52 46 49 45 44 52 52 41 36 34 48 38 20 20 26 28 31 33 36 34 35 44 41 35 32 38 38 34 33 34 33 32 29 25 22 21 20
6 7 23 43 59 54 48 46 47 48 50 61 71 74 63 52 50 71 82 33 27 34 42 43 35 37 38 38 44 43 38 36 40 38 38 38 36 37 36 31 26 24 22 22
8 12 10 41 60 52 40 38 41 54 68 74 83 85 84 64 57 57 88 80 41 42 53 55 42 40 40 43 46 48 42 40 40 40 41 42 41 40 35 29 24 23 24 24
6 20 13 28 47 45 46 53 54 67 75 75 78 91 92 87 77 72 74 80 55 70 85 62 48 44 46 49 51 53 47 44 45 43 44 46 47 44 38 30 26 25 26 27
7 20 23 13 34 74 53 81 79 86 86 91 85 86 97 95 87 85 81 80 66 67 87 77 49 49 57 55 56 59 53 50 48 46 47 49 49 48 41 33 29 28 29 30
7 6 26 21 15 91 97 98 100 100 100 97 93 86 90 93 88 79 79 73 71 84 90 77 50 58 71 62 64 64 57 55 55 53 51 53 52 51 45 35 32 31 30 32
4 8 42 25 17 26 100 100 100 100 100 100 98 85 87 90 88 79 75 82 89 76 90 63 52 63 71 67 72 70 61 61 60 58 58 58 56 54 51 42 35 33 32 31

GFSNW_500_rhum_099.txt.gz
RH
100 100 100 88 80 51 22 21 25 22 19 16 23 86 100 99 64 66 38 36 47 77 100 66 72 74 59 65 100 100 99 82 99 90 90 77 55 49 46 41 50 62 62 75
62 51 47 28 20 15 14 15 14 14 17 24 97 100 97 38 46 66 39 38 46 78 70 65 100 79 83 83 100 98 100 100 94 82 95 90 53 47 43 48 43 41 38 43
5 5 8 10 11 12 12 13 15 22 76 99 98 95 36 34 56 58 35 34 59 79 86 64 70 57 85 83 85 78 74 80 85 87 93 89 70 51 45 48 44 45 56 40
9 11 16 16 12 13 16 27 84 96 98 100 99 34 30 30 53 56 28 36 58 67 77 78 67 77 86 66 39 38 43 58 56 56 58 77 80 67 49 31 32 33 32 30
30 34 37 36 47 73 86 90 96 100 100 100 82 33 28 31 55 34 25 39 51 51 62 68 59 49 34 49 50 49 46 39 38 46 38 31 34 46 44 37 27 20 17 21
36 39 46 68 74 80 88 99 100 99 86 40 30 21 18 28 32 19 27 38 41 46 48 52 52 44 41 37 44 36 34 33 42 30 37 37 34 28 27 30 34 34 37 32
39 44 47 62 72 94 100 100 94 55 22 15 15 12 11 13 21 17 20 27 30 29 40 37 40 39 42 46 37 39 42 38 36 33 31 27 25 25 24 25 26 25 24 22
34 43 60 64 71 76 80 81 61 32 12 9 8 7 7 8 12 18 17 21 24 23 25 24 23 26 24 29 29 31 29 32 32 34 30 26 28 26 27 26 25 23 22 20
30 36 44 53 47 46 42 49 17 7 9 6 6 5 5 5 6 7 8 12 14 14 16 14 15 18 20 18 17 20 22 20 18 18 19 16 16 17 16 15 15 16 15 15
23 25 26 31 32 23 15 8 6 5 5 6 5 5 6 7 7 8 8 8 8 8 8 8 8 8 7 6 6 6 6 6 6 7 7 7 7 8 8 9 8 6 6 6
13 14 14 15 14 9 8 5 5 5 5 6 6 7 7 9 10 12 12 12 13 12 12 12 12 12 12 12 12 11 11 10 10 10 10 10 10 10 9 8 9 9 9 9
16 14 10 10 8 6 6 6 5 5 6 6 7 8 10 11 13 16 17 18 18 19 18 18 18 18 17 17 16 16 16 16 16 16 16 15 15 15 14 15 16 15 14 14
18 14 13 13 9 6 6 6 5 5 6 7 8 9 11 13 16 18 19 20 21 21 21 22 22 23 23 23 22 22 22 21 20 20 19 18 17 16 15 16 15 14 13 13
19 16 14 13 12 8 8 5 5 5 5 6 8 9 11 13 15 16 18 20 23 25 26 28 29 27 26 26 25 24 22 21 21 20 19 19 19 18 16 15 14 14 12 11
15 18 20 20 16 14 12 10 7 6 6 5 6 8 10 12 13 14 16 20 21 20 22 25 29 30 29 26 24 21 20 18 18 18 18 17 18 17 16 14 13 14 12 12
8 14 21 20 22 18 16 14 9 7 6 5 5 6 8 9 10 12 15 17 18 16 14 20 24 29 29 28 24 21 20 20 19 20 20 21 20 18 16 15 14 15 14 14
5 11 17 22 24 25 22 23 19 14 11 8 6 6 6 6 6 7 10 13 12 12 12 17 22 26 27 31 30 24 22 20 21 23 23 22 18 16 16 18 19 17 16 15
2 5 10 20 26 25 32 30 28 24 19 14 14 9 8 6 6 6 7 8 9 8 9 13 17 23 27 28 36 34 27 24 23 27 28 27 21 21 25 26 24 22 20 19
8 3 4 16 23 31 31 33 34 34 30 25 24 24 19 14 10 8 7 7 7 6 8 12 20 24 30 29 30 41 38 29 26 31 32 30 29 30 29 29 30 29 26 22
12 12 7 3 5 24 42 45 35 35 37 36 43 43 41 34 29 19 12 9 8 15 12 15 25 26 31 32 31 33 44 34 30 34 34 31 30 31 31 30 29 27 24 20
15 14 12 7 6 9 20 47 51 44 36 37 49 56 53 49 49 41 29 19 18 25 28 23 27 25 31 32 35 36 39 44 35 35 37 36 35 35 35 34 34 29 26 21
18 16 14 12 8 6 4 10 37 51 56 48 58 65 64 59 52 55 46 33 28 30 48 48 33 21 48 38 35 36 39 44 43 37 40 40 40 42 42 41 39 33 30 28
23 17 14 13 12 11 8 7 5 28 45 56 69 69 68 65 63 63 69 54 42 39 40 44 63 29 54 70 47 39 39 44 49 42 42 43 43 45 47 47 46 42 35 33
30 26 22 18 17 11 9 8 7 14 49 65 61 78 79 74 78 77 66 63 59 50 42 46 73 71 56 78 67 46 43 48 53 53 45 48 48 48 50 52 53 52 47 41
40 34 30 26 22 14 9 12 15 12 28 100 95 88 91 92 75 74 77 73 61 51 54 60 72 88 74 92 89 55 48 53 54 58 54 52 55 54 55 57 59 59 57 49
45 40 41 39 22 9 12 23 27 20 16 44 100 100 99 100 91 72 68 70 73 85 86 85 91 97 94 92 96 62 53 64 63 66 64 59 63 61 61 65 68 67 66 58
43 46 43 33 10 10 18 36 39 27 18 24 95 100 100 95 94 82 76 84 100 99 98 98 94 96 97 97 97 60 54 69 69 72 71 67 70 70 72 75 78 76 74 65

GFSNW_500_rhum_102.txt.gz
RH
34 29 17 14 14 13 13 13 12 13 42 84 70 77 96 100 67 35 46 82 80 60 69 42 52 78 98 100 100 96 100 100 97 85 59 52 50 45 60 84 88 85 86 95
56 53 56 59 45 43 48 58 54 68 90 91 99 92 95 58 35 46 66 84 82 76 81 81 79 98 100 100 100 98 97 80 96 94 81 61 52 45 46 63 60 55 54 72
67 80 93 98 99 98 99 100 96 99 88 82 34 34 49 45 36 47 74 60 60 75 86 95 91 91 99 99 100 100 98 72 85 79 68 48 36 32 38 45 46 44 42 26
55 66 72 70 82 76 63 47 39 54 58 31 28 34 54 43 35 53 57 59 36 53 64 78 89 73 57 50 55 75 87 94 97 81 52 48 37 39 40 32 38 50 18 26
22 39 40 36 25 30 22 19 15 15 18 22 25 31 30 20 26 36 37 49 46 38 53 67 44 48 58 52 42 36 47 50 52 67 78 69 69 70 56 41 51 49 56 56
12 10 12 11 6 6 6 6 7 8 9 14 19 19 16 14 20 25 31 43 44 53 48 34 37 39 39 36 36 42 41 33 39 34 28 30 47 55 54 50 48 40 42 40
9 6 5 6 5 4 4 5 5 5 6 8 10 12 12 13 15 18 23 28 36 38 34 29 34 40 39 37 39 35 34 29 26 30 31 29 26 24 26 27 25 27 28 26
6 6 5 5 4 4 4 4 6 6 7 6 7 8 8 10 13 15 16 19 21 24 24 22 21 21 22 29 29 28 26 30 28 26 24 22 25 25 25 24 23 22 22 21
8 5 5 4 4 4 4 4 6 7 8 9 8 8 8 8 9 9 11 11 13 16 16 16 17 18 19 17 15 16 16 17 20 18 16 16 15 18 18 16 13 15 15 13
8 8 5 4 3 4 4 5 6 7 9 10 10 11 11 11 10 10 9 9 9 9 8 8 8 8 8 7 7 7 7 7 7 7 7 7 7 8 9 9 7 6 6 6
10 6 6 4 4 4 4 5 5 7 8 10 12 14 16 16 15 14 14 14 14 13 13 12 12 11 11 10 10 10 9 9 9 9 8 8 9 8 8 8 9 9 9 9
13 12 8 7 4 4 4 4 5 6 7 8 11 13 14 17 18 19 19 19 19 18 18 17 16 16 16 15 14 14 14 14 14 13 13 13 13 13 13 12 12 12 12 12
13 16 16 8 6 4 4 4 4 5 6 7 9 11 12 13 15 18 21 23 23 23 22 21 21 20 21 20 19 18 17 16 15 15 15 14 14 13 12 11 11 10 10 10
10 16 18 15 13 7 4 4 4 4 5 5 6 8 10 12 14 16 19 22 23 24 25 24 22 21 19 19 17 16 15 15 14 14 14 14 12 13 12 10 9 9 10 10
5 10 16 18 18 14 12 9 5 5 6 5 5 5 6 9 10 12 16 19 20 21 23 25 25 24 21 18 15 14 14 14 15 17 17 16 14 13 11 10 10 12 12 12
2 4 8 16 20 19 18 16 16 13 7 7 5 5 5 6 7 8 8 14 16 15 16 20 24 26 26 25 20 18 16 16 19 21 22 21 18 13 12 14 19 20 19 17
7 3 3 6 17 26 27 26 28 29 23 18 14 12 6 5 5 6 6 7 11 13 10 12 17 23 24 25 29 27 22 21 18 23 26 24 23 21 20 23 24 23 23 23
10 10 8 4 4 7 15 28 30 28 27 28 29 25 22 16 10 7 6 6 8 10 10 8 10 17 21 24 24 27 32 31 25 22 27 26 25 24 24 23 23 23 21 20
11 10 11 12 8 4 6 9 22 34 37 34 44 56 46 35 27 20 12 9 8 9 9 8 11 13 17 23 28 28 26 32 35 28 26 28 26 24 25 26 27 27 25 23
9 8 7 10 12 12 9 6 5 6 11 27 38 56 66 64 55 43 33 22 15 12 11 11 13 19 10 21 28 30 30 29 31 37 31 29 30 28 28 32 32 32 31 29
16 12 8 12 16 19 13 11 9 8 9 9 24 40 52 71 75 73 57 43 35 24 21 20 19 18 17 26 27 32 32 34 36 36 39 35 33 34 34 36 39 39 39 40
23 19 18 17 19 23 21 15 12 11 9 8 10 31 56 58 67 71 73 68 49 35 28 28 25 18 23 42 45 37 46 47 37 37 40 42 40 37 38 40 42 44 46 48
39 28 26 23 22 24 21 25 20 14 10 10 9 9 10 29 59 58 67 69 62 51 41 30 33 26 31 44 66 68 37 43 62 58 42 43 47 44 42 44 45 46 50 53
63 41 29 29 32 26 30 32 35 29 21 15 11 9 8 9 20 40 54 56 64 54 45 49 61 43 38 50 70 84 82 52 60 77 72 45 50 53 51 48 51 53 54 57
61 54 43 35 39 39 41 43 41 39 36 23 13 12 9 10 10 42 62 57 51 59 74 84 76 68 52 52 60 64 79 80 64 89 92 69 55 57 59 57 55 59 60 63
58 41 43 47 45 49 51 50 46 37 28 22 16 15 11 8 12 11 64 81 57 71 95 98 98 98 84 60 62 75 70 80 91 94 93 70 62 67 68 68 63 63 68 71
48 38 57 62 63 62 60 52 45 35 22 17 14 12 13 12 9 11 18 86 100 100 96 94 95 100 100 100 99 92 97 100 100 99 95 78 62 72 76 76 72 71 73 77

GFSNW_500_rhum_105.txt.gz
RH
18 14 13 23 72 98 99 97 90 72 70 64 81 80 92 53 47 76 89 61 57 64 56 73 93 100 100 92 86 95 87 79 77 69 55 71 92 98 99 98 97 94 68 94
8 8 8 9 14 22 84 60 71 47 31 74 84 56 37 54 78 81 58 42 38 43 68 97 100 100 100 99 100 100 89 82 77 47 46 47 59 78 85 91 98 89 69 90
5 5 6 6 7 9 13 20 18 22 27 47 29 34 57 54 40 46 39 27 48 61 81 92 86 98 78 81 87 85 97 74 59 50 44 44 46 59 52 63 75 72 56 54
5 5 6 6 6 7 7 10 10 13 19 23 25 34 42 38 31 36 40 46 56 56 63 61 50 57 88 100 75 62 66 76 78 57 49 39 33 36 42 44 54 82 34 49
5 5 6 6 8 8 8 7 7 8 10 15 17 20 25 25 24 23 29 41 45 38 38 38 33 41 43 49 67 75 71 73 61 54 43 37 45 51 43 43 38 56 44 48
5 5 6 6 8 9 10 9 8 7 7 7 10 12 15 16 24 27 32 38 33 32 32 30 30 30 32 31 31 35 38 44 52 53 62 60 56 56 54 54 53 52 53 49
6 5 5 5 6 8 9 10 11 10 9 8 7 8 10 12 14 18 24 27 26 28 26 24 24 22 23 28 31 28 27 30 30 26 26 32 34 34 34 35 33 32 34 32
7 6 4 4 5 6 8 11 12 13 12 12 10 9 8 8 11 14 15 17 20 22 22 22 20 23 18 18 20 24 22 23 26 22 22 20 18 18 20 20 20 20 20 18
11 6 6 4 4 5 6 8 10 14 14 14 13 13 12 11 10 8 8 9 12 12 12 13 14 13 16 13 11 13 11 11 14 17 18 15 14 12 13 13 13 14 13 12
17 14 8 6 4 4 5 6 7 10 13 14 15 16 15 14 13 13 13 12 11 10 10 9 8 8 7 7 7 8 8 8 8 8 8 9 9 10 10 8 7 7 8 10
7 16 12 9 7 4 4 5 6 7 8 11 12 14 16 16 16 16 16 16 14 14 13 13 12 12 12 11 11 10 9 9 8 8 8 9 8 8 8 10 10 11 11 12
3 10 21 16 11 6 4 4 5 5 6 7 9 12 13 16 17 18 18 20 20 18 18 16 15 14 13 13 12 12 12 11 11 10 10 10 10 10 10 10 10 9 9 9
4 4 9 26 17 12 8 7 7 7 5 6 6 7 10 13 16 18 20 20 20 20 21 19 18 15 13 12 11 11 11 11 11 10 10 10 10 9 9 8 9 9 9 9
7 4 4 9 20 20 16 12 8 7 7 7 5 5 5 8 10 14 18 20 20 21 21 20 18 16 14 12 12 12 14 15 16 15 13 11 9 9 8 9 9 9 10 10
8 7 5 3 8 13 21 19 17 15 13 12 11 7 5 5 6 8 9 14 18 20 21 21 22 22 21 16 14 12 12 14 17 20 19 18 16 12 9 9 11 16 18 17
6 7 8 6 4 4 8 19 22 26 28 19 17 18 12 6 5 5 7 7 8 16 17 18 21 22 21 22 24 20 18 15 16 20 22 21 21 20 15 12 15 20 21 18
7 7 7 8 7 8 6 4 6 14 24 31 32 30 27 22 11 6 5 6 6 7 11 13 11 14 19 22 23 23 26 27 23 19 22 23 22 21 20 20 21 21 19 19
13 11 11 8 8 8 8 8 6 6 5 6 12 31 40 40 39 26 12 7 6 6 7 9 11 11 11 12 17 22 25 25 29 32 26 23 24 23 22 22 23 24 24 25
20 15 13 11 7 6 6 6 10 11 10 8 6 7 16 28 39 43 43 35 18 12 8 8 8 10 11 9 10 18 24 28 28 26 30 32 28 27 26 24 25 28 29 30
44 22 17 14 10 8 7 8 12 13 15 12 9 9 8 9 11 25 39 41 45 40 26 14 11 11 8 8 8 13 19 25 29 31 30 30 34 33 29 29 28 28 32 34
56 43 26 20 16 12 8 8 13 14 14 16 16 14 13 11 9 8 12 25 39 37 37 47 29 32 29 13 9 10 14 15 24 31 34 35 36 37 38 35 33 33 34 36
68 59 51 37 26 19 16 15 20 22 19 16 14 15 17 15 13 11 8 9 9 16 35 43 40 76 70 45 19 13 15 15 18 28 38 46 47 40 39 42 43 39 39 40
77 66 52 48 46 38 21 26 26 26 24 21 18 17 18 19 18 17 11 10 11 12 10 12 46 64 67 71 46 22 16 18 26 51 34 32 44 59 68 50 43 48 49 45
94 84 71 61 46 39 44 45 37 34 32 31 29 28 24 16 18 15 11 12 12 10 12 8 15 38 60 65 80 40 27 28 27 30 44 48 47 53 76 89 87 54 53 57
95 95 80 68 63 56 59 61 50 43 42 42 44 42 34 26 23 17 12 15 17 12 10 9 9 57 99 92 79 93 45 42 51 48 61 69 71 77 76 90 93 82 64 60
96 86 77 77 84 89 77 68 62 55 54 51 51 48 34 30 26 23 16 18 15 13 9 7 7 21 62 83 92 95 93 47 35 37 38 48 58 69 90 98 98 88 70 71
83 67 77 81 89 94 91 88 76 68 66 63 58 56 54 42 34 32 25 16 14 12 10 7 8 11 30 98 100 89 98 98 78 61 58 57 61 76 88 100 99 98 77 71

GFSNW_500_rhum_111.txt.gz
RH
12 10 6 6 7 9 12 18 22 30 37 52 25 29 36 43 55 77 83 81 77 95 100 100 100 93 84 80 73 74 86 94 97 100 100 92 96 94 99 87 97 100 91 98
12 13 10 7 6 8 10 14 17 21 24 23 32 40 43 54 63 68 66 63 86 90 99 93 95 72 64 72 85 93 90 90 96 98 98 95 95 96 90 96 100 96 95 97
9 13 13 11 8 7 7 9 12 16 20 27 36 36 42 42 50 50 54 59 64 70 68 71 68 54 66 79 89 70 70 70 72 73 88 96 87 90 97 97 94 92 98 90
5 9 14 13 11 10 8 7 8 9 14 21 24 35 38 36 31 31 37 43 46 53 55 52 64 64 62 69 61 56 48 46 49 50 54 66 72 81 83 83 85 84 81 88
4 5 10 14 14 12 11 9 8 8 8 10 14 16 18 21 26 24 22 28 33 32 36 45 49 47 50 48 44 44 39 30 27 24 27 32 34 33 53 69 50 67 47 55
12 4 5 10 14 14 14 13 11 10 9 8 9 11 13 16 19 17 14 14 17 22 25 29 30 32 39 37 36 33 32 30 27 22 21 20 20 15 15 18 24 29 33 27
9 12 4 5 9 12 13 15 15 13 12 11 10 9 10 12 12 13 13 12 12 14 14 15 17 21 27 35 34 33 32 28 26 24 21 23 19 16 15 15 14 15 15 19
3 7 13 5 5 7 9 12 14 15 15 14 13 12 11 10 9 9 9 9 10 10 9 10 10 10 10 13 18 28 32 33 28 24 24 20 19 19 17 14 12 11 11 13
4 3 5 14 5 5 6 8 11 13 15 17 16 16 15 13 13 12 11 10 8 7 6 6 6 6 7 8 10 12 13 11 10 8 8 9 9 10 8 8 8 8 9 8
13 4 4 5 15 7 4 5 6 10 12 13 16 18 17 16 16 16 14 14 13 11 12 11 9 8 6 6 6 6 6 6 6 6 6 6 5 6 7 7 6 6 6 6
42 9 5 4 4 10 14 6 5 5 7 9 10 15 19 20 18 17 16 16 16 16 14 13 13 13 12 12 11 10 10 10 9 8 8 8 8 9 9 9 10 10 10 10
51 39 9 5 4 3 4 14 13 7 5 5 6 8 11 16 18 20 19 18 16 17 18 17 16 15 14 14 13 13 12 11 10 10 10 10 11 11 11 10 10 9 9 9
60 50 41 18 6 6 4 3 8 20 18 10 7 6 7 10 11 15 18 19 19 20 20 20 19 20 17 14 14 14 14 15 15 13 11 9 8 8 9 9 9 10 10 10
58 63 48 46 24 8 8 5 4 4 10 18 20 20 11 6 6 10 14 18 20 21 21 21 22 22 23 24 21 15 14 14 16 18 18 17 15 11 8 8 8 9 10 11
62 61 66 58 49 31 13 9 7 5 5 4 6 13 20 21 10 12 8 8 10 14 18 19 18 19 20 20 23 23 21 19 15 13 15 20 21 20 18 16 11 9 8 13
76 80 73 68 66 44 38 16 11 8 6 6 6 6 5 6 10 18 25 24 16 10 7 8 9 11 14 14 14 18 19 23 25 25 22 17 18 20 20 20 19 17 13 12
86 80 87 76 74 72 43 37 17 12 9 6 5 6 6 7 7 7 7 7 7 9 10 11 12 14 15 11 9 10 11 12 15 21 26 29 28 25 23 22 22 20 18 17
100 85 80 90 84 87 68 46 31 21 11 7 5 6 5 6 7 7 7 8 9 10 10 10 12 10 12 9 12 16 13 15 10 10 10 15 24 29 34 30 25 24 23 21
96 100 85 75 82 97 85 62 44 33 20 12 8 6 5 5 5 6 6 6 8 9 10 11 12 11 12 14 8 9 6 7 15 22 18 9 9 12 21 29 32 34 28 27
92 92 100 97 91 91 88 73 63 54 38 23 15 10 6 6 6 6 6 7 8 9 10 11 13 13 14 13 14 12 12 9 6 4 8 30 33 18 9 9 14 30 34 37
91 96 96 100 98 92 86 81 64 62 58 45 28 15 12 9 8 9 10 11 12 13 14 15 18 14 17 18 18 16 17 14 14 12 12 6 9 44 49 36 12 8 10 24
100 96 97 98 96 92 74 63 68 73 76 62 60 40 21 15 13 10 9 10 12 14 19 24 26 20 20 18 19 22 23 17 15 17 17 12 5 5 37 66 56 24 11 9
98 98 97 93 85 84 56 49 51 94 96 97 96 92 68 41 28 24 23 22 22 24 25 31 33 33 31 26 22 25 32 35 25 22 19 14 9 5 4 26 72 54 20 10
98 97 95 90 65 58 60 73 92 85 94 95 95 98 93 75 61 52 45 38 36 33 34 37 39 41 40 40 34 30 38 40 33 27 22 14 12 12 9 5 11 57 63 54
99 96 89 66 69 69 69 75 97 100 96 96 93 96 97 99 86 71 60 54 49 45 41 46 46 44 45 45 50 51 50 48 43 29 23 16 15 13 12 9 7 12 69 80
99 93 74 58 65 79 92 97 100 99 97 96 92 91 94 96 98 83 80 78 71 66 77 66 52 50 52 56 56 59 62 54 34 28 22 19 18 15 15 12 9 7 14 72
93 80 72 66 75 78 93 100 97 98 98 100 96 92 96 89 82 70 77 93 98 77 64 57 61 66 60 57 52 48 44 33 30 29 28 24 20 19 16 14 11 8 9 45